Tracking 30923 objects as of 1-Jul-2025
HD Live streaming from Space Station
objects crossing your sky now

ARIANE 3 DEB (SYLDA)

Track ARIANE 3 DEB (SYLDA) now!


NORAD ID: 15166
Int'l Code: 1984-081D
Perigee: 684.7 km
Apogee: 33,364.4 km
Inclination: 7.3 °
Period: 593.6 minutes
Semi major axis: 23395 km
RCS: 2.1732 m2 (large)
Launch date: August 4, 1984
Source: France (FR)
Launch site: FRENCH GUIANA (FRGUI)

Note: This is SATELLITE DEBRIS
Your satellite tracking list
Your tracking list is empty




NASA's NSSDC Master Catalog

Two Line Element Set (TLE):
1 15166U 84081D   25180.80982855 -.00000080  00000-0  14249-2 0  9992
2 15166   7.3115  26.6392 6984169 243.2285  31.4781  2.42607154267623
Source of the keplerian elements: AFSPC